Regional Weather Roundup
Issued by NWS

Home | Current Version | Previous Version | Graphics & Text | Print | Product List | Glossary On
Versions: 1 2 3 4 5 6 7 8 9 10 11 12 13 14 15 16 17 18 19 20 21 22 23 24 25 26 27 28 29 30 31 32 33 34 35 36 37 38 39 40 41 42 43 44 45 46 47 48 49 50
000
ASUS44 KMEG 260310
RWRTN
TENNESSEE HOURLY STATE WEATHER ROUNDUP
NATIONAL WEATHER SERVICE MEMPHIS TN
1000 PM CDT FRI JUL 25 2014

TNZ002-004-019-021-049-052-054-088>092-260400-
WEST TENNESSEE

CITY           SKY/WX    TMP DP  RH WIND       PRES   REMARKS
MEMPHIS INTL   PTCLDY    76  64  66 S5        29.98R
NWS MEMPHIS      N/A     73 N/A N/A MISG        N/A
JACKSON        PTCLDY    71  66  84 CALM      29.98R
DYERSBURG      PTCLDY    70  59  68 CALM      29.98R
UNION CITY     CLEAR     70  64  83 SE3       29.96R
PARIS          PTCLDY    66  62  87 S6        29.99R
LEXINGTON      CLEAR     70  66  88 CALM      29.98R
SAVANNAH       PTCLDY    68  68 100 CALM      29.99R
$$

TNZ008-025-027-028-033-062-065-066-260400-
NORTH MIDDLE TENNESSEE

CITY           SKY/WX    TMP DP  RH WIND       PRES   REMARKS
NASHVILLE      MOCLDY    76  62  62 CALM      30.00R
DICKSON        PTCLDY    68  63  83 CALM      30.00R
PORTLAND       MOCLDY    70  63  78 CALM      30.00R
CLARKSVILLE    PTCLDY    72  62  71 CALM      29.99R
SMYRNA         PTCLDY    72  65  78 CALM      30.01R
MURFREESBORO   PTCLDY    74  63  68 CALM      30.00R
COOKEVILLE     CLEAR     66  64  94 CALM      30.03R
LIVINGSTON       N/A     67  59  75 SW3       30.05R
GALLATIN       PTCLDY    74  64  70 CALM      30.01R
CROSSVILLE     PTCLDY    65  59  81 CALM      30.07R
$$

TNZ061-075-076-078-094-096-097-260400-
SOUTH MIDDLE TENNESSEE

CITY           SKY/WX    TMP DP  RH WIND       PRES   REMARKS
LEWISBURG      PTCLDY    68  64  86 CALM      29.99R
FAYETTEVILLE   CLEAR     70  63  78 CALM      30.02R
TULLAHOMA      CLEAR     64  61  88 CALM      30.03R
WINCHESTER     CLEAR     68  64  88 S3        30.02R
MCMINNVILLE    CLEAR     66  66 100 CALM      30.03R
COLUMBIA       CLEAR     70  66  88 CALM      29.99R
SHELBYVILLE    CLEAR     68  66  94 CALM      30.02R
$$

TNZ017-018-042-046-047-260400-
NORTHEAST TENNESSEE

CITY           SKY/WX    TMP DP  RH WIND       PRES   REMARKS
TRI CITIES     PTCLDY    65  60  84 CALM      30.06R
ELIZABETHTON   CLEAR     63  61  94 CALM      30.07R
$$

TNZ012-013-036-069-073-074-260400-
CENTRAL EAST TENNESSEE

CITY           SKY/WX    TMP DP  RH WIND       PRES   REMARKS
KNOXVILLE      PTCLDY    74  62  66 CALM      30.02R
OAK RIDGE      PTCLDY    71  65  81 CALM      30.04R
GATLINBURG     CLEAR     66  63  88 CALM      30.03R
MORRISTOWN     CLEAR     68  64  88 CALM      30.06R
$$

TNZ083-085-099-260400-
SOUTHEAST TENNESSEE

CITY           SKY/WX    TMP DP  RH WIND       PRES   REMARKS
CHATTANOOGA    MOCLDY    76  63  64 CALM      30.01R
$$

SKY/WX REPORTED AS FAIR MEANS FEW OR NO CLOUDS BELOW
12 THOUSAND FEET.




USA.gov is the U.S. government's official web portal to all federal, state and local government web resources and services.